Regional Weather Roundup
Issued by NWS

Home | Current Version | Previous Version | Graphics & Text | Print | Product List | Glossary On
Versions: 1 2 3 4 5 6 7 8 9 10 11 12 13 14 15 16 17 18 19 20 21 22 23 24 25 26 27 28 29 30 31 32 33 34 35 36 37 38 39 40 41 42 43 44 45 46 47 48 49 50
000
ASUS43 KDTX 240901
RWRMI
MICHIGAN HOURLY REGIONAL WEATHER ROUNDUP
NATIONAL WEATHER SERVICE DETROIT/PONTIAC MI
500 AM EDT SUN JUL 24 2016

NOTE: "FAIR" INDICATES FEW OR NO CLOUDS BELOW 12,000 FEET WITH NO
SIGNIFICANT WEATHER AND/OR OBSTRUCTION TO VISIBILITY.

MIZ047>049-052>055-059>063-066>070-074>076-081>083-241000-
SOUTHEAST LOWER MICHIGAN

CITY           SKY/WX    TMP DP  RH WIND       PRES   REMARKS
ADRIAN         CLOUDY    74  71  91 CALM      29.99S
ALMA           MOCLDY    75  70  83 S13       29.95S
ANN ARBOR      CLOUDY    72  68  87 CALM      29.99S
BAD AXE        MOCLDY    69  59  70 S7        29.97F
CARO           CLOUDY    71  58  63 CALM      29.96S
DETROIT CITY   CLOUDY    75  60  59 CALM      29.99R
DETROIT        CLOUDY    77  65  66 VRB3      29.99R
FLINT          CLOUDY    79  60  52 S9        29.97F
GROSSE ILE     CLOUDY    77  70  79 S3        29.98R
HOWELL         CLOUDY    75  60  59 S7        29.99S

CITY           SKY/WX    TMP DP  RH WIND       PRES   REMARKS
JACKSON        LGT RAIN  74  70  87 W8        30.00R
LAMBERTVILLE   CLOUDY    74  69  83 CALM      29.99S
LANSING        LGT RAIN  75  66  73 S8        29.98S
LAPEER         FAIR      70  59  67 S3        29.99S
MASON          LGT RAIN  72  65  79 S9        29.98F
MONROE         CLOUDY    79  70  74 CALM      29.98S
MT. CLEMENS    CLOUDY    70  65  83 CALM      29.97S
PONTIAC        CLOUDY    74  63  68 S3        29.99S
PORT HOPE        N/A     72  62  71 S7        29.95F
PORT HURON     CLOUDY    63  63 100 CALM      29.99S
TRI CITIES     MOCLDY    74  63  68 S6        29.96S
MIDLAND        CLOUDY    75  63  64 S5        29.94S
TROY           CLOUDY    76  62  61 CALM      30.01S
SAGINAW HB     CLOUDY    72  61  68 S5        29.95S
$$
MIZ043>046-050>051-056>058-064>065-071>073-077>080-241000-
SOUTHWEST LOWER MICHIGAN

CITY           SKY/WX    TMP DP  RH WIND       PRES   REMARKS
BATTLE CREEK   LGT RAIN  70  70 100 SE8       29.98F
BENTON HARBOR  CLOUDY    72  69  90 SE7       29.94F
BIG RAPIDS     CLOUDY    73  71  91 CALM      29.94S
COLDWATER      LGT RAIN  73  73  99 NE7       29.98F
FREMONT        CLOUDY    72  72 100 S3        29.93F
HOLLAND        LGT RAIN  72  70  93 SE9       29.94F
GRAND RAPIDS   MOCLDY    72  68  87 S8        29.96R
IONIA          LGT RAIN  72  67  83 S10       29.95S
KALAMAZOO      LGT RAIN  72  69  90 SE6       29.96F
LUDINGTON      RAIN      71  68  89 S9        29.89F
MARSHALL       CLOUDY    72  72 100 S5        30.00F
MOUNT PLEASANT CLOUDY    76  66  72 S5        29.94S
MUSKEGON       CLOUDY    72  69  90 S9        29.91F
SOUTH HAVEN    RAIN      72  72  99 SE6       29.94F
$$
MIZ016>042-241000-
NORTHERN LOWER MICHIGAN

CITY           SKY/WX    TMP DP  RH WIND       PRES   REMARKS
ALPENA         CLOUDY    69  59  70 CALM      29.95F
BEAVER ISLAND    N/A     69  67  95 CALM      29.90S
BELLAIRE       CLOUDY    75  63  65 CALM      29.90S
CADILLAC       CLOUDY    73  65  78 SW6       29.93F
CHARLEVOIX     LGT RAIN  73  62  67 CALM      29.92S
FRANKFORT      CLOUDY    74  67  79 S8        29.89S
GAYLORD        CLOUDY    71  58  63 S7        29.93F
GRAYLING       CLOUDY    72  62  72 SE3       29.94F
HARBOR SPRINGS LGT RAIN  74  61  63 CALM      29.88F
HOUGHTON LAKE  CLOUDY    73  63  70 S12       29.94F
MANISTEE       CLOUDY    74  68  81 S6        29.89F
OSCODA         CLOUDY    67  61  80 CALM      29.95S
PELLSTON       CLOUDY    72  59  63 SE7       29.88F
ROGERS CITY    CLOUDY    71  56  59 S12       29.93F
TRAVERSE CITY  CLOUDY    75  65  70 S3        29.87F
$$
MIZ007>008-015-241000-
EASTERN UPPER MICHIGAN

CITY           SKY/WX    TMP DP  RH WIND       PRES   REMARKS
KINROSS        LGT RAIN  71  59  65 SE10      29.91F
MACKINAC ISLAN CLOUDY    73  56  56 SE8       29.88F
NEWBERRY       LGT RAIN  66  64  94 S7        29.90R
S. S. MARIE    CLOUDY    69  63  81 E3        29.90F
MUNISING         N/A     67  65  93 CALM      29.87S
$$
MIZ004>006-011>014-085-241000-
CENTRAL UPPER MICHIGAN

CITY           SKY/WX    TMP DP  RH WIND       PRES   REMARKS
MANISTIQUE     RAIN      67  66  97 N5        29.88S
ESCANABA       CLOUDY    66  64  94 E3        29.83F
MENOMINEE      CLOUDY    73  71  93 SW5       29.83F
SAWYER-GWINN   DRIZZLE   66  65  95 S7        29.85F
$$
MIZ001>003-009>011-084-241000-
WESTERN UPPER MICHIGAN

CITY           SKY/WX    TMP DP  RH WIND       PRES   REMARKS
IRON MOUNTAIN  CLOUDY    69  66  90 SE5       29.83F FOG
HOUGHTON       FOG       66  64  93 E7        29.80F VSB 1/4
COPPER HARBOR    N/A     68  66  93 S9G18     29.79F
IRONWOOD       CLOUDY    70  66  88 SW9       29.79R
$$

ABBREVIATIONS USED IN REMARKS
   TC - TEMPERATURE IN CELSIUS
  WCI - WIND CHILL INDEX
   HX - HEAT INDEX
  VSB - VISIBILITY





USA.gov is the U.S. government's official web portal to all federal, state and local government web resources and services.